TimeCDT,TemperatureF,Dew PointF,Humidity,Sea Level PressureIn,VisibilityMPH,Wind Direction,Wind SpeedMPH,Gust SpeedMPH,PrecipitationIn,Events,Conditions,WindDirDegrees,DateUTC
12:15 AM,72.7,60.8,66,30.13,10.0,SSE,3.5,-,N/A,,Clear,160,2013-06-21 05:15:00
12:35 AM,72.5,61.2,67,30.13,10.0,SSE,3.5,-,N/A,,Clear,160,2013-06-21 05:35:00
12:55 AM,72.1,61.3,69,30.13,10.0,SSE,4.6,-,N/A,,Clear,160,2013-06-21 05:55:00
1:15 AM,72.7,61.7,68,30.12,10.0,South,5.8,-,N/A,,Clear,170,2013-06-21 06:15:00
1:35 AM,72.5,61.7,69,30.12,10.0,South,4.6,-,N/A,,Clear,170,2013-06-21 06:35:00
1:55 AM,72.3,61.3,68,30.12,10.0,SSE,3.5,-,N/A,,Clear,160,2013-06-21 06:55:00
2:15 AM,71.6,61.7,71,30.12,10.0,South,4.6,-,N/A,,Clear,170,2013-06-21 07:15:00
2:35 AM,71.8,61.2,69,30.11,10.0,SSE,5.8,-,N/A,,Clear,160,2013-06-21 07:35:00
2:55 AM,71.6,61.0,69,30.11,10.0,South,5.8,-,N/A,,Clear,170,2013-06-21 07:55:00
3:15 AM,71.6,60.8,69,30.11,10.0,South,5.8,-,N/A,,Clear,170,2013-06-21 08:15:00
3:35 AM,70.7,60.8,71,30.11,10.0,South,4.6,-,N/A,,Clear,180,2013-06-21 08:35:00
3:55 AM,70.2,60.4,71,30.12,10.0,South,3.5,-,N/A,,Clear,170,2013-06-21 08:55:00
4:35 AM,69.1,60.8,75,30.11,10.0,SSE,3.5,-,N/A,,Clear,160,2013-06-21 09:35:00
4:55 AM,69.4,61.0,74,30.11,10.0,SSE,3.5,-,N/A,,Clear,160,2013-06-21 09:55:00
5:15 AM,69.4,60.8,74,30.12,10.0,SSE,3.5,-,N/A,,Clear,150,2013-06-21 10:15:00
5:35 AM,69.4,60.8,74,30.12,10.0,SSE,3.5,-,N/A,,Scattered Clouds,150,2013-06-21 10:35:00
5:55 AM,69.8,60.8,73,30.12,10.0,SSE,4.6,-,N/A,,Scattered Clouds,160,2013-06-21 10:55:00
6:15 AM,70.7,61.3,72,30.12,10.0,SSE,5.8,-,N/A,,Clear,160,2013-06-21 11:15:00
6:35 AM,71.2,61.9,72,30.12,10.0,South,4.6,-,N/A,,Clear,170,2013-06-21 11:35:00
6:55 AM,72.1,62.2,71,30.11,10.0,SSE,5.8,127.7,N/A,,Clear,150,2013-06-21 11:55:00
7:15 AM,73.0,62.6,70,30.11,10.0,South,6.9,-,N/A,,Clear,170,2013-06-21 12:15:00
7:35 AM,74.1,63.0,68,30.10,10.0,South,8.1,-,N/A,,Clear,170,2013-06-21 12:35:00
7:55 AM,75.4,63.7,67,30.11,10.0,South,5.8,-,N/A,,Clear,180,2013-06-21 12:55:00
8:15 AM,77.2,64.6,65,30.10,10.0,South,8.1,-,N/A,,Clear,180,2013-06-21 13:15:00
8:35 AM,77.5,64.8,65,30.09,10.0,South,9.2,-,N/A,,Clear,170,2013-06-21 13:35:00
8:55 AM,78.8,65.7,64,30.11,10.0,South,6.9,-,N/A,,Clear,170,2013-06-21 13:55:00
9:15 AM,80.2,66.4,63,30.11,10.0,South,8.1,17.3,N/A,,Clear,180,2013-06-21 14:15:00
9:35 AM,80.6,66.6,62,30.10,10.0,South,8.1,17.3,N/A,,Clear,180,2013-06-21 14:35:00
9:55 AM,81.0,66.9,62,30.10,10.0,South,8.1,131.2,N/A,,Clear,180,2013-06-21 14:55:00
10:15 AM,82.4,67.5,60,30.09,10.0,South,8.1,-,N/A,,Clear,170,2013-06-21 15:15:00
10:35 AM,83.5,67.1,58,30.10,10.0,SSW,15.0,130.0,N/A,,Clear,200,2013-06-21 15:35:00
10:55 AM,83.1,66.2,57,30.10,10.0,SSW,9.2,36.8,N/A,,Clear,210,2013-06-21 15:55:00
11:15 AM,83.8,67.3,57,30.09,10.0,SSW,9.2,-,N/A,,Clear,200,2013-06-21 16:15:00
11:35 AM,84.0,66.6,56,30.11,10.0,SSW,6.9,16.1,N/A,,Clear,210,2013-06-21 16:35:00
11:55 AM,84.2,66.9,56,30.11,10.0,SSW,8.1,-,N/A,,Clear,200,2013-06-21 16:55:00
12:15 PM,83.7,66.0,55,30.12,10.0,SW,5.8,-,N/A,,Scattered Clouds,220,2013-06-21 17:15:00
12:35 PM,83.1,65.5,55,30.13,10.0,SW,3.5,-,N/A,Thunderstorm,Scattered Clouds,230,2013-06-21 17:35:00
12:55 PM,74.7,63.9,69,30.16,10.0,NNW,12.7,23.0,N/A,Thunderstorm,Scattered Clouds,340,2013-06-21 17:55:00
1:15 PM,72.3,63.9,75,30.17,10.0,North,10.4,24.2,N/A,Thunderstorm,Scattered Clouds,350,2013-06-21 18:15:00
1:35 PM,71.4,64.0,77,30.17,10.0,NNE,12.7,29.9,N/A,Rain-Thunderstorm,Light Thunderstorms and Rain,20,2013-06-21 18:35:00
1:55 PM,67.6,64.8,90,30.18,0.8,Calm,Calm,-,0.26,Rain-Thunderstorm,Heavy Thunderstorms and Rain,0,2013-06-21 18:55:00
2:15 PM,67.1,64.9,93,30.22,2.5,NW,4.6,-,0.17,Rain-Thunderstorm,Heavy Thunderstorms and Rain,310,2013-06-21 19:15:00
2:35 PM,67.1,65.3,94,30.20,2.5,SE,3.5,-,0.40,Rain-Thunderstorm,Thunderstorms and Rain,130,2013-06-21 19:35:00
2:55 PM,66.9,65.1,94,30.14,10.0,SE,5.8,-,0.44,Rain,Rain,130,2013-06-21 19:55:00
3:15 PM,67.3,64.6,91,30.02,10.0,ESE,18.4,21.9,0.01,Rain-Thunderstorm,Light Thunderstorms and Rain,120,2013-06-21 20:15:00
3:35 PM,68.0,63.5,85,29.96,10.0,East,17.3,23.0,0.01,Rain,Light Rain,100,2013-06-21 20:35:00
3:55 PM,71.2,63.7,77,29.95,10.0,SSE,6.9,12.7,0.01,,Clear,160,2013-06-21 20:55:00
4:15 PM,71.6,63.7,76,29.95,10.0,SW,4.6,-,N/A,,Clear,230,2013-06-21 21:15:00
4:35 PM,73.9,63.0,68,29.94,10.0,SW,5.8,147.3,N/A,,Clear,230,2013-06-21 21:35:00
4:55 PM,72.1,64.2,76,29.97,10.0,SW,6.9,16.1,N/A,,Clear,230,2013-06-21 21:55:00
5:15 PM,72.9,63.7,73,29.98,10.0,SW,5.8,-,N/A,,Clear,220,2013-06-21 22:15:00
5:35 PM,74.7,63.0,67,29.99,10.0,SSW,6.9,-,N/A,,Clear,210,2013-06-21 22:35:00
5:55 PM,75.6,62.8,64,30.00,10.0,SSW,4.6,-,N/A,,Clear,200,2013-06-21 22:55:00
6:15 PM,75.2,64.4,69,30.02,10.0,South,3.5,-,N/A,,Clear,190,2013-06-21 23:15:00
6:35 PM,74.3,64.9,72,30.03,10.0,South,4.6,-,N/A,,Clear,190,2013-06-21 23:35:00
6:55 PM,73.8,65.1,74,30.04,10.0,SSE,3.5,-,N/A,,Clear,160,2013-06-21 23:55:00
7:15 PM,73.2,65.5,77,30.04,10.0,ESE,3.5,-,N/A,,Clear,120,2013-06-22 00:15:00
7:35 PM,72.7,65.8,79,30.04,10.0,ESE,5.8,-,N/A,,Clear,120,2013-06-22 00:35:00
7:55 PM,72.1,66.0,81,30.04,10.0,SE,3.5,-,N/A,,Clear,140,2013-06-22 00:55:00
8:15 PM,72.0,65.8,81,30.04,10.0,SSE,4.6,-,N/A,,Clear,150,2013-06-22 01:15:00
8:35 PM,71.8,65.7,81,30.04,10.0,SE,4.6,-,N/A,,Clear,140,2013-06-22 01:35:00
8:55 PM,71.6,66.0,82,30.04,10.0,SSE,3.5,-,N/A,,Clear,150,2013-06-22 01:55:00
9:15 PM,70.7,65.8,85,30.06,10.0,Calm,Calm,-,N/A,,Clear,0,2013-06-22 02:15:00
9:35 PM,70.7,66.2,86,30.07,10.0,Calm,Calm,-,N/A,,Clear,0,2013-06-22 02:35:00
9:55 PM,70.3,66.2,87,30.08,10.0,Calm,Calm,-,N/A,,Clear,0,2013-06-22 02:55:00
10:15 PM,70.0,66.2,88,30.09,10.0,South,4.6,-,N/A,,Clear,170,2013-06-22 03:15:00
10:35 PM,71.2,66.4,85,30.08,10.0,South,4.6,-,N/A,,Clear,170,2013-06-22 03:35:00
10:55 PM,71.2,66.4,85,30.08,10.0,SSE,5.8,-,N/A,,Scattered Clouds,160,2013-06-22 03:55:00
11:15 PM,71.4,66.4,84,30.07,10.0,South,3.5,-,N/A,,Mostly Cloudy,170,2013-06-22 04:15:00
11:35 PM,71.1,66.2,85,30.07,10.0,Calm,Calm,-,N/A,,Mostly Cloudy,0,2013-06-22 04:35:00
11:55 PM,70.9,66.2,85,30.06,10.0,South,4.6,-,N/A,,Scattered Clouds,180,2013-06-22 04:55:00